Weather History for Mount Ida, AR

Change the Weather History Date:

Wednesday, October 8, 2014

  Actual Average (KHOT) Record (KHOT)
Temperature  
Mean Temperature 74 °F -  
Max Temperature 82 °F 75 °F 97 °F (1963)
Min Temperature 66 °F 51 °F 36 °F (1952)
Cooling Degree Days 9    
Growing Degree Days 24 (Base 50)    
Moisture  
Dew Point 68 °F    
Average Humidity 84    
Maximum Humidity 97    
Minimum Humidity 65    
Precipitation  
Precipitation 0.00 in - - ()
Sea Level Pressure  
Sea Level Pressure 30.01 in    
Wind  
Wind Speed 1 mph (SE)    
Max Wind Speed 7 mph    
Max Gust Speed -    
Averages and records for this station are not official NWS values.
T = Trace of Precipitation, MM = Missing Value Source: NWS Daily Summary

Daily Weather History Graph

Daily Weather History Graph

Search for Another Location

Airport:

Trip Planner

Search our weather history database for the weather conditions in past years. The results will help you decide how hot, cold, wet, or windy it might be!

Date:

Astronomy

Oct. 08, 2014 Rise Set
Actual Time 7:14 AM CDT 6:48 PM CDT
Civil Twilight 6:49 AM CDT 7:13 PM CDT
Nautical Twilight 6:19 AM CDT 7:43 PM CDT
Astronomical Twilight 5:50 AM CDT 8:12 PM CDT
Moon 7:06 PM CDT (10/8) 7:20 AM CDT (10/8)
Length of Visible Light 12h 24m
Length of Day
11h 34m
Full, 100% of the Moon is Illuminated
Oct 8
Full
Oct 15
Last Quarter
Oct 23
New
Oct 30
First Quarter
Nov 6
Full

Hourly Weather History & Observations

Time (CDT) Temp. Heat Index Dew Point Humidity Pressure Visibility Wind Dir Wind Speed Gust Speed Precip Events Conditions
12:53 AM 66.9 °F - 64.9 °F 93% 29.95 in - Calm Calm - N/A   Clear
1:53 AM 68.0 °F - 66.0 °F 93% 29.96 in - Calm Calm - N/A   Clear
2:53 AM 68.0 °F - 66.0 °F 93% 29.97 in - Calm Calm - N/A   Clear
3:53 AM 68.0 °F - 66.0 °F 93% 29.96 in - Calm Calm - N/A   Partly Cloudy
4:53 AM 68.0 °F - 66.0 °F 93% 29.97 in - Calm Calm - N/A   Clear
5:18 AM 68.0 °F - 66.0 °F 93% 30.01 in - Calm Calm - N/A   Partly Cloudy
5:53 AM 66.9 °F - 64.9 °F 93% 29.99 in - Calm Calm - N/A   Clear
6:46 AM 66.9 °F - 66.0 °F 97% 30.02 in - Calm Calm - N/A   Partly Cloudy
6:53 AM 66.9 °F - 64.9 °F 93% 30.00 in - Calm Calm - N/A   Clear
7:53 AM 66.9 °F - 64.9 °F 93% 30.01 in - Calm Calm - N/A   Clear
8:20 AM 72.0 °F - 69.1 °F 91% 30.04 in - Calm Calm - N/A   Mostly Cloudy
8:53 AM 73.9 °F - 70.0 °F 87% 30.04 in - Calm Calm - N/A   Overcast
9:53 AM 75.0 °F - 71.1 °F 87% 30.06 in - Calm Calm - N/A   Overcast
10:53 AM 73.9 °F - 70.0 °F 87% 30.09 in - Variable 3.5 mph - N/A   Overcast
11:23 AM 73.0 °F - 66.9 °F 81% 30.11 in - Calm Calm - N/A   Overcast
11:53 AM 73.9 °F - 66.0 °F 76% 30.08 in - Variable 3.5 mph - N/A   Overcast
12:10 PM 75.9 °F - 66.0 °F 71% 30.10 in - Variable 4.6 mph - N/A   Overcast
12:53 PM 79.0 °F - 68.0 °F 69% 30.06 in - SE 4.6 mph - N/A   Overcast
1:53 PM 82.0 °F 85.9 °F 70.0 °F 67% 30.02 in - South 4.6 mph - N/A   Partly Cloudy
2:53 PM 82.0 °F 85.5 °F 69.1 °F 65% 30.01 in - Calm Calm - N/A   Partly Cloudy
3:33 PM 82.0 °F 85.5 °F 69.1 °F 65% 30.03 in - SE 5.8 mph - N/A   Mostly Cloudy
3:53 PM 81.0 °F 84.1 °F 69.1 °F 67% 30.00 in - Calm Calm - N/A   Scattered Clouds
4:53 PM 80.1 °F 82.9 °F 69.1 °F 69% 29.99 in - Calm Calm - N/A   Partly Cloudy
5:53 PM 79.0 °F - 70.0 °F 74% 29.98 in - SE 6.9 mph - N/A   Clear
6:27 PM 77.0 °F - 70.0 °F 79% 30.01 in - SE 3.5 mph - N/A   Mostly Cloudy
6:53 PM 75.9 °F - 70.0 °F 82% 29.99 in - SE 3.5 mph - N/A   Scattered Clouds
7:05 PM 75.0 °F - 70.0 °F 84% 30.02 in - Calm Calm - N/A   Mostly Cloudy
7:12 PM 75.0 °F - 70.0 °F 84% 30.01 in - Calm Calm - N/A   Scattered Clouds
7:53 PM 72.0 °F - 69.1 °F 91% 29.99 in - Calm Calm - N/A   Clear
8:53 PM 71.1 °F - 69.1 °F 93% 29.99 in - Calm Calm - N/A   Clear
9:53 PM 70.0 °F - 68.0 °F 93% 30.00 in - Calm Calm - N/A   Clear
10:53 PM 70.0 °F - 68.0 °F 93% 30.00 in - Calm Calm - N/A   Clear
11:53 PM 68.0 °F - 66.9 °F 96% 29.99 in - Calm Calm - N/A   Clear